CZ-3B DEB, 40160

Orbit data source: Space-Track

CZ-3B DEB, 40160 is space debris in HEO originally from a launch on Sat, 04 Sep 2010 UTC launched from the Xichang Space Center, China (XSC). Debris objects in space refer to the collection of defunct objects orbiting the Earth. Examples of debris include non-operational satellites, rocket bodies, and fragments generated from explosions, collisions, or faulty payload assembly.

Loading next visibility...
Identifier
40160, 2010-042M
Orbit
HEO
Country
Flag of CNCN / PRC
Related business
Manufacturer
CALT
Mission
Spacecraft
Bus & Motor
Unknown
Mass
Unknown
Launch date (UTC)
2010-09-04 (16 years ago)
Launch vehicle
Unknown
Launch site
Xichang Space Center, China (XSC)
Object type
Payload
Rocket body
Debris
Shape & HBR
Unknown shape, 0.3 m
Radar Cross Section
Medium (>0.1 m² and <1 m²)

Expand to show TLE details & history
Last TLE update: 1 day ago

TLE from 1 day ago
0 CZ-3B DEB
1 40160U 10042M   26197.16921637 -.00000093  00000-0  00000-0 0  9991
2 40160  26.7724 250.0514 7260135   1.3093   3.1235  1.89884224 87777
Epoch: 2026-07-16T04:03Z
TLE epoch observation values (Epoch: 2026-07-16T04:03:40.294Z)
Latitude
11.96089°
Longitude
-80.11356°
Altitude
1,493.762 km
Speed
9.317 km/s
True Right ascension
18h 19m 16s
True Declination
11° 53' 52"
Sunlit
Object was in full shadow at epoch
Visualization orbit readout
Latitude
Unknown
Longitude
Unknown
Altitude
Unknown
Speed
Unknown
Apparent Right ascension
Unknown
Apparent Declination
Unknown
Sunlit
N/A
Visualization observer readout
Local Sidereal Time
20:38:28
Azimuth
Unknown
Elevation
Unknown
Doppler factor
Unknown
Orbital elements
Apogee altitude
41,174.466 km
Perigee altitude
1,170.339 km
Semi-major axis
27,550.539 km
Eccentricity
0.72601
Inclination
26.7724°
RAAN
250.0514°
Arg. of periapsis
1.3093°
True anomaly
27.67759°
Mean anomaly
3.1235°
Eccentric anomaly
11.211°
Mean motion
0.47462 °/min
Orbital period
758.5 mins
BSTAR
0
Loading maneuver chart data...
Computing Atmospheric mass density...
Loading historical data...
Loading historical data...
Loading historical data...
Loading historical data...
Loading historical data...
Loading historical data...
Loading historical data...

Documentation

Showing up to 5 results
|